| time (UTC) | temp F | wind direction | speed MPH | gust MPH | rain 1hr in | rain 24hr in | rain mn in | humidity % | barometer mb |
| 20260905083059 | 54 | 0 | 0.0 | 1.0 | 0.00 | 0.06 | 0.00 | 92 | 1015.9 |
| 20260905081618 | 54 | 0 | 0.0 | 1.0 | 0.00 | 0.06 | 0.00 | 91 | 1015.9 |
| 20260905080119 | 54 | 0 | 0.0 | 1.0 | 0.00 | 0.06 | 0.00 | 90 | 1015.8 |
| 20260905074604 | 54 | 0 | 0.0 | 0.0 | 0.00 | 0.06 | 0.00 | 90 | 1015.7 |
| 20260905073059 | 55 | 0 | 0.0 | 0.0 | 0.00 | 0.06 | 0.00 | 90 | 1015.6 |
| 20260905071603 | 54 | 0 | 0.0 | 0.0 | 0.00 | 0.06 | 0.00 | 90 | 1015.7 |
| 20260905070108 | 55 | 0 | 0.0 | 0.0 | 0.00 | 0.06 | 0.00 | 90 | 1015.5 |
| 20260905064603 | 54 | 0 | 0.0 | 0.0 | 0.00 | 0.06 | 0.06 | 91 | 1015.4 |
| 20260905063102 | 54 | 0 | 0.0 | 0.0 | 0.00 | 0.06 | 0.06 | 92 | 1015.4 |
| 20260905061611 | 53 | 0 | 0.0 | 1.0 | 0.00 | 0.06 | 0.06 | 91 | 1015.2 |
| 20260905060100 | 54 | 0 | 0.0 | 0.0 | 0.00 | 0.06 | 0.06 | 90 | 1015.3 |
| 20260905054556 | 54 | 0 | 0.0 | 0.0 | 0.00 | 0.06 | 0.06 | 90 | 1015.3 |
| 20260905053103 | 54 | 0 | 0.0 | 0.0 | 0.00 | 0.06 | 0.06 | 91 | 1015.3 |
| 20260905051557 | 54 | 0 | 0.0 | 0.0 | 0.00 | 0.06 | 0.06 | 91 | 1015.3 |
| 20260905050107 | 54 | 0 | 0.0 | 0.0 | 0.00 | 0.06 | 0.06 | 92 | 1015.3 |
| 20260905044606 | 55 | 0 | 0.0 | 0.0 | 0.00 | 0.06 | 0.06 | 92 | 1015.3 |
| 20260905043100 | 55 | 0 | 0.0 | 0.0 | 0.00 | 0.06 | 0.06 | 92 | 1015.2 |
| 20260905041602 | 55 | 0 | 0.0 | 1.0 | 0.00 | 0.06 | 0.06 | 92 | 1015.2 |
| 20260905040104 | 56 | 0 | 0.0 | 2.0 | 0.00 | 0.06 | 0.06 | 91 | 1014.9 |
| 20260905034607 | 55 | 0 | 0.0 | 2.0 | 0.00 | 0.06 | 0.06 | 91 | 1014.8 |
| 20260905033103 | 56 | 0 | 0.0 | 1.0 | 0.00 | 0.06 | 0.06 | 90 | 1014.6 |
| 20260905031559 | 56 | 0 | 0.0 | 2.0 | 0.00 | 0.06 | 0.06 | 88 | 1014.6 |
| 20260905030121 | 56 | 0 | 0.0 | 1.0 | 0.00 | 0.06 | 0.06 | 86 | 1014.2 |
| 20260905024559 | 57 | 0 | 0.0 | 1.0 | 0.00 | 0.06 | 0.06 | 83 | 1014.1 |
| 20260905023100 | 57 | 281 | 0.0 | 1.0 | 0.00 | 0.06 | 0.06 | 81 | 1014.2 |
| 20260905021606 | 58 | 0 | 0.0 | 2.0 | 0.00 | 0.06 | 0.06 | 81 | 1014.2 |
| 20260905020108 | 59 | 0 | 0.0 | 0.0 | 0.00 | 0.06 | 0.06 | 81 | 1014.0 |
| 20260905014604 | 59 | 0 | 0.0 | 2.0 | 0.00 | 0.06 | 0.06 | 80 | 1013.9 |
| 20260905013104 | 59 | 0 | 0.0 | 3.0 | 0.00 | 0.06 | 0.06 | 79 | 1013.8 |
| 20260905011603 | 60 | 159 | 0.0 | 1.0 | 0.00 | 0.06 | 0.06 | 76 | 1013.6 |
| 20260905010114 | 60 | 0 | 0.0 | 2.0 | 0.00 | 0.06 | 0.06 | 76 | 1013.5 |
| 20260905004614 | 60 | 0 | 0.0 | 1.0 | 0.00 | 0.06 | 0.06 | 76 | 1013.5 |
| 20260905003057 | 60 | 0 | 0.0 | 2.0 | 0.00 | 0.06 | 0.06 | 71 | 1013.4 |
| 20260905001603 | 60 | 0 | 0.0 | 2.0 | 0.00 | 0.06 | 0.06 | 70 | 1013.5 |
| 20260904234558 | 61 | 0 | 0.0 | 1.0 | 0.00 | 0.07 | 0.06 | 70 | 1013.6 |
| 20260904233059 | 61 | 0 | 0.0 | 2.0 | 0.00 | 0.07 | 0.06 | 72 | 1013.5 |
| 20260904231556 | 61 | 179 | 1.0 | 9.0 | 0.00 | 0.07 | 0.06 | 65 | 1013.5 |
| 20260904230100 | 62 | 99 | 2.0 | 8.0 | 0.00 | 0.07 | 0.06 | 66 | 1013.2 |
| 20260904224601 | 62 | 98 | 0.0 | 3.0 | 0.00 | 0.07 | 0.06 | 69 | 1013.1 |
| 20260904223101 | 63 | 116 | 0.0 | 8.0 | 0.00 | 0.07 | 0.06 | 67 | 1013.1 |
| 20260904221613 | 62 | 86 | 2.0 | 8.0 | 0.00 | 0.07 | 0.06 | 61 | 1013.0 |
| 20260904220107 | 63 | 0 | 1.0 | 4.0 | 0.00 | 0.07 | 0.06 | 63 | 1012.9 |
| 20260904214611 | 64 | 235 | 1.0 | 6.0 | 0.00 | 0.08 | 0.06 | 64 | 1012.8 |
| 20260904213058 | 63 | 159 | 1.0 | 7.0 | 0.00 | 0.08 | 0.06 | 73 | 1012.9 |
| 20260904211616 | 62 | 178 | 2.0 | 8.0 | 0.00 | 0.08 | 0.06 | 68 | 1012.6 |
| 20260904210059 | 64 | 115 | 1.0 | 4.0 | 0.00 | 0.08 | 0.06 | 71 | 1012.3 |
| 20260904204600 | 65 | 0 | 1.0 | 6.0 | 0.00 | 0.09 | 0.06 | 66 | 1012.2 |
| 20260904203114 | 63 | 166 | 0.0 | 4.0 | 0.00 | 0.09 | 0.06 | 70 | 1012.3 |
| 20260904201600 | 62 | 0 | 1.0 | 3.0 | 0.00 | 0.09 | 0.06 | 80 | 1012.4 |
| 20260904200111 | 60 | 32 | 0.0 | 4.0 | 0.00 | 0.09 | 0.06 | 85 | 1012.6 |
| 20260904194602 | 61 | 154 | 1.0 | 7.0 | 0.00 | 0.09 | 0.06 | 83 | 1012.6 |
| 20260904193058 | 60 | 0 | 1.0 | 3.0 | 0.00 | 0.09 | 0.06 | 84 | 1012.7 |
| 20260904191602 | 60 | 163 | 0.0 | 3.0 | 0.00 | 0.09 | 0.06 | 85 | 1012.7 |
| 20260904190058 | 60 | 86 | 0.0 | 3.0 | 0.00 | 0.09 | 0.06 | 82 | 1012.8 |
| 20260904184600 | 60 | 0 | 0.0 | 3.0 | 0.00 | 0.09 | 0.06 | 87 | 1012.9 |
| 20260904183101 | 60 | 0 | 0.0 | 3.0 | 0.00 | 0.09 | 0.06 | 81 | 1012.7 |
| 20260904181558 | 60 | 286 | 0.0 | 3.0 | 0.00 | 0.09 | 0.06 | 84 | 1012.5 |
| 20260904180114 | 59 | 140 | 0.0 | 4.0 | 0.00 | 0.09 | 0.06 | 87 | 1012.4 |
| 20260904174609 | 57 | 0 | 0.0 | 3.0 | 0.00 | 0.09 | 0.06 | 92 | 1012.4 |
| 20260904173105 | 56 | 0 | 0.0 | 2.0 | 0.00 | 0.09 | 0.06 | 93 | 1012.4 |
| 20260904171604 | 55 | 279 | 0.0 | 2.0 | 0.00 | 0.09 | 0.06 | 93 | 1012.3 |
| 20260904164600 | 55 | 0 | 0.0 | 3.0 | 0.00 | 0.16 | 0.06 | 93 | 1012.0 |
| 20260904163058 | 55 | 0 | 0.0 | 2.0 | 0.00 | 0.16 | 0.06 | 95 | 1011.8 |
| 20260904161603 | 55 | 52 | 0.0 | 2.0 | 0.00 | 0.16 | 0.06 | 95 | 1011.9 |
| 20260904160100 | 54 | 0 | 0.0 | 2.0 | 0.00 | 0.16 | 0.06 | 96 | 1011.9 |
| 20260904154557 | 53 | 0 | 0.0 | 2.0 | 0.00 | 0.18 | 0.06 | 96 | 1011.9 |
| 20260904153119 | 53 | 0 | 0.0 | 2.0 | 0.00 | 0.18 | 0.06 | 96 | 1011.9 |
| 20260904151559 | 53 | 0 | 0.0 | 2.0 | 0.00 | 0.18 | 0.06 | 96 | 1011.7 |
| 20260904150101 | 52 | 0 | 0.0 | 1.0 | 0.00 | 0.18 | 0.06 | 96 | 1011.5 |
| 20260904144558 | 52 | 55 | 0.0 | 1.0 | 0.00 | 0.18 | 0.06 | 96 | 1011.2 |
| 20260904143103 | 52 | 0 | 0.0 | 2.0 | 0.00 | 0.18 | 0.06 | 95 | 1011.1 |
| 20260904141604 | 52 | 0 | 0.0 | 4.0 | 0.00 | 0.18 | 0.06 | 95 | 1011.1 |
| 20260904140101 | 52 | 47 | 0.0 | 2.0 | 0.00 | 0.18 | 0.06 | 95 | 1011.0 |
| 20260904134601 | 52 | 0 | 0.0 | 3.0 | 0.00 | 0.23 | 0.06 | 95 | 1010.9 |
| 20260904133101 | 52 | 0 | 0.0 | 3.0 | 0.02 | 0.23 | 0.06 | 95 | 1010.6 |
| 20260904131634 | 52 | 0 | 0.0 | 2.0 | 0.04 | 0.23 | 0.06 | 95 | 1010.7 |
| 20260904130058 | 52 | 0 | 0.0 | 2.0 | 0.05 | 0.23 | 0.06 | 95 | 1010.6 |
| 20260904124559 | 52 | 0 | 0.0 | 1.0 | 0.06 | 0.25 | 0.06 | 94 | 1010.6 |
| 20260904123106 | 52 | 0 | 0.0 | 1.0 | 0.04 | 0.23 | 0.04 | 95 | 1010.5 |
| 20260904121601 | 53 | 0 | 0.0 | 1.0 | 0.02 | 0.21 | 0.02 | 94 | 1010.4 |
| 20260904120104 | 53 | 0 | 0.0 | 2.0 | 0.01 | 0.20 | 0.01 | 94 | 1010.3 |
| 20260904114559 | 53 | 0 | 0.0 | 3.0 | 0.00 | 0.19 | 0.00 | 94 | 1010.2 |
| 20260904113105 | 53 | 308 | 0.0 | 1.0 | 0.00 | 0.19 | 0.00 | 94 | 1010.1 |
| 20260904111614 | 53 | 0 | 0.0 | 3.0 | 0.00 | 0.19 | 0.00 | 94 | 1009.8 |
| 20260904110101 | 53 | 0 | 0.0 | 2.0 | 0.00 | 0.19 | 0.00 | 93 | 1009.8 |
| 20260904104606 | 53 | 0 | 0.0 | 1.0 | 0.00 | 0.19 | 0.00 | 93 | 1009.7 |
| 20260904103109 | 53 | 0 | 0.0 | 2.0 | 0.00 | 0.19 | 0.00 | 93 | 1009.7 |
| 20260904101557 | 53 | 0 | 0.0 | 1.0 | 0.00 | 0.19 | 0.00 | 93 | 1009.6 |
| 20260904094600 | 53 | 0 | 0.0 | 1.0 | 0.00 | 0.19 | 0.00 | 91 | 1009.5 |
| 20260904093055 | 54 | 0 | 0.0 | 1.0 | 0.00 | 0.19 | 0.00 | 90 | 1009.5 |
| 20260904091607 | 54 | 0 | 0.0 | 1.0 | 0.00 | 0.19 | 0.00 | 89 | 1009.5 |
| 20260904084602 | 55 | 0 | 0.0 | 3.0 | 0.00 | 0.19 | 0.00 | 81 | 1009.4 |